Flag for Germany Weather past 2 weeks in Lüneburg, Lower Saxony, Germany

Now
43 °F

Partly sunny.


Feels Like: 35 °F
Forecast: 45 / 52 °F
Wind: 15 mph from West

Location: Fassberg

Current Time: Dec 21, 2014 at 4:36:21 PM

Latest Report: Dec 21, 2014 at 3:20 PM


Visibility: N/A

Pressure: 30.12 "Hg

Humidity: 87%

Dew point: 39 °F

Location of LüneburgLocation

Historic Weather in Lüneburg — Graph

°F

Lüneburg temperature yesterday

Maximum temperature yesterday: 45 °F (at 11:20 AM)
Minimum temperature yesterday: 37 °F (at 1:47 PM)
Average temperature yesterday: 40 °F

Past Weeks' High & Low Weather Summary

 TemperatureHumidityPressure
High54 °F (Dec 18, 8:20 PM)100% (Dec 6, 4:20 PM)30.33 "Hg (Dec 6, 4:20 PM)
Low32 °F (Dec 14, 11:20 PM)70% (Dec 10, 4:20 AM)29.27 "Hg (Dec 12, 2:20 PM)
Average40 °F88%29.85 "Hg
* Reported Dec 6 3:20 PM — Dec 21 3:20 PM, Lüneburg, Weather by CustomWeather, © 2014

Note: Actual official high and low records may vary slightly from our data, if they occured in-between our weather recording intervals... More about our weather records

Advertising

Lüneburg weather history for previous 24 hours

 ConditionsComfort  
Time TempWeatherWind HumidityBarometerVisibility
3:20 PM
Dec 21
43 °FPartly sunny.15 mph87%30.12 "HgN/A
2:20 PM43 °FPartly sunny.15 mph87%30.15 "Hg4 mi
1:20 PM41 °FDrizzle. Partly sunny.14 mph93%30.18 "Hg4 mi
12:20 PM41 °FPartly sunny.16 mph93%30.21 "Hg4 mi
11:20 AM41 °FPartly sunny.13 mph87%30.24 "Hg6 mi
10:20 AM39 °FBroken clouds.13 mph87%30.24 "HgN/A
9:20 AM37 °FBroken clouds.9 mph93%30.24 "HgN/A
8:20 AM37 °FPassing clouds.9 mph93%30.24 "HgN/A
7:20 AM39 °FPartly cloudy.9 mph87%30.21 "HgN/A
6:20 AM39 °FPassing clouds.12 mph87%30.21 "HgN/A
5:20 AM39 °FPassing clouds.12 mph87%30.18 "HgN/A
4:20 AM39 °FPassing clouds.10 mph87%30.18 "HgN/A
3:20 AM39 °FPassing clouds.10 mph93%30.15 "HgN/A
2:20 AM41 °FPartly cloudy.10 mph87%30.12 "HgN/A
1:20 AM41 °FRain showers. Passing clouds.18 mph87%30.09 "Hg4 mi
12:20 AM39 °FSprinkles. Partly cloudy.16 mph87%30.07 "Hg6 mi
11:20 PM
Dec 20
39 °FRain showers. Passing clouds.13 mph87%30.04 "Hg4 mi
10:20 PM37 °FPassing clouds.16 mph87%30.01 "HgN/A
9:20 PM37 °FPassing clouds.15 mph87%29.98 "HgN/A
8:20 PM37 °FPassing clouds.12 mph87%29.95 "HgN/A
7:20 PM37 °FPartly cloudy.13 mph93%29.92 "HgN/A
6:20 PM37 °FPassing clouds.20 mph93%29.86 "HgN/A
5:20 PM39 °FPartly cloudy.21 mph87%29.83 "HgN/A
4:20 PM39 °FPartly cloudy.14 mph93%29.80 "HgN/A
Weather by CustomWeather, © 2014

See weather overviewHow to use our weather pages